Previsão horária em Plonica

Hoje, 5 Março, Sexta-feira

Tempo Temperatura Precipitação Vento Pressão Humidade
00:00 +2°C° 0.9 mm 2 m/s 734 mmHg 94%
01:00 +2°C° 0 mm 2 m/s 734 mmHg 97%
02:00 +1°C° 0.5 mm 2 m/s 734 mmHg 95%
03:00 +1°C° 0.5 mm 2 m/s 734 mmHg 94%
04:00 0°C° 0.5 mm 3 m/s 734 mmHg 92%
05:00 -1°C° 0.2 mm 3 m/s 734 mmHg 93%
06:00 -1°C° 0.2 mm 3 m/s 735 mmHg 94%
07:00 -1°C° 0.2 mm 3 m/s 735 mmHg 94%
08:00 -1°C° 0.4 mm 3 m/s 736 mmHg 92%
09:00 -2°C° 0.4 mm 4 m/s 737 mmHg 90%
10:00 -2°C° 0.4 mm 5 m/s 737 mmHg 88%
11:00 -2°C° 0.1 mm 5 m/s 738 mmHg 82%
12:00 -1°C° 0.1 mm 5 m/s 738 mmHg 76%
13:00 -1°C° 0.1 mm 5 m/s 739 mmHg 70%
14:00 -1°C° 0.1 mm 5 m/s 739 mmHg 68%
15:00 -1°C° 0.1 mm 5 m/s 740 mmHg 67%
16:00 -1°C° 0.1 mm 4 m/s 740 mmHg 65%
17:00 -1°C° 0 mm 3 m/s 741 mmHg 69%
18:00 -2°C° 0 mm 2 m/s 741 mmHg 73%
19:00 -3°C° 0 mm 2 m/s 742 mmHg 77%
20:00 -3°C° 0 mm 2 m/s 742 mmHg 77%
21:00 -3°C° 0 mm 2 m/s 743 mmHg 78%
22:00 -3°C° 0 mm 2 m/s 744 mmHg 79%
23:00 -3°C° 0 mm 2 m/s 744 mmHg 79%

Amanhã, 6 Março, Sábado

Tempo Temperatura Precipitação Vento Pressão Humidade
00:00 -3°C° 0 mm 2 m/s 744 mmHg 79%
01:00 -4°C° 0 mm 2 m/s 745 mmHg 80%
02:00 -4°C° 0 mm 2 m/s 745 mmHg 79%
03:00 -4°C° 0 mm 2 m/s 745 mmHg 79%
04:00 -4°C° 0 mm 2 m/s 745 mmHg 78%
05:00 -2°C° 0 mm 1 m/s 745 mmHg 77%
06:00 -2°C° 0 mm 1 m/s 746 mmHg 76%
07:00 -2°C° 0 mm 1 m/s 746 mmHg 75%
08:00 -2°C° 0 mm 2 m/s 746 mmHg 69%
09:00 -1°C° 0 mm 2 m/s 747 mmHg 62%
10:00 0°C° 0 mm 3 m/s 747 mmHg 56%
11:00 +1°C° 0 mm 3 m/s 747 mmHg 53%
12:00 +2°C° 0 mm 3 m/s 746 mmHg 50%
13:00 +2°C° 0 mm 3 m/s 746 mmHg 47%
14:00 +2°C° 0 mm 3 m/s 746 mmHg 48%
15:00 +2°C° 0 mm 3 m/s 745 mmHg 49%
16:00 +2°C° 0 mm 3 m/s 745 mmHg 51%
17:00 +2°C° 0 mm 2 m/s 745 mmHg 57%
18:00 +1°C° 0 mm 2 m/s 745 mmHg 63%
19:00 -2°C° 0 mm 2 m/s 745 mmHg 68%
20:00 -2°C° 0 mm 2 m/s 744 mmHg 69%
21:00 -2°C° 0 mm 2 m/s 744 mmHg 69%
22:00 -2°C° 0 mm 2 m/s 744 mmHg 69%
23:00 -2°C° 0 mm 2 m/s 744 mmHg 68%

Depois de amanhã, 7 Março, Domingo

Tempo Temperatura Precipitação Vento Pressão Humidade
00:00 -2°C° 0 mm 2 m/s 744 mmHg 68%
01:00 -2°C° 0 mm 2 m/s 744 mmHg 67%
02:00 -3°C° 0 mm 2 m/s 743 mmHg 68%
03:00 -4°C° 0 mm 3 m/s 743 mmHg 68%
04:00 -4°C° 0 mm 3 m/s 742 mmHg 69%
05:00 -3°C° 0 mm 2 m/s 742 mmHg 69%
06:00 -3°C° 0 mm 2 m/s 742 mmHg 70%
07:00 -3°C° 0 mm 2 m/s 742 mmHg 70%
08:00 -1°C° 0 mm 3 m/s 742 mmHg 66%
09:00 0°C° 0 mm 3 m/s 741 mmHg 61%
10:00 +2°C° 0 mm 3 m/s 741 mmHg 57%
11:00 +2°C° 0 mm 3 m/s 741 mmHg 55%
12:00 +3°C° 0 mm 3 m/s 740 mmHg 53%
13:00 +4°C° 0 mm 3 m/s 740 mmHg 51%
14:00 +4°C° 0 mm 3 m/s 739 mmHg 53%
15:00 +4°C° 0 mm 3 m/s 738 mmHg 55%
16:00 +3°C° 0 mm 3 m/s 738 mmHg 57%
17:00 +2°C° 0 mm 3 m/s 738 mmHg 63%
18:00 +2°C° 0 mm 2 m/s 738 mmHg 68%
19:00 -1°C° 0 mm 2 m/s 737 mmHg 73%
20:00 +1°C° 0 mm 1 m/s 737 mmHg 75%
21:00 +1°C° 0 mm 1 m/s 737 mmHg 77%
22:00 0°C° 0 mm 1 m/s 737 mmHg 79%
23:00 0°C° 0 mm 1 m/s 737 mmHg 81%

8 Março, Segunda-feira

Tempo Temperatura Precipitação Vento Pressão Humidade
00:00 0°C° 0 mm 1 m/s 737 mmHg 83%
01:00 -2°C° 0 mm 2 m/s 737 mmHg 84%
02:00 -2°C° 0 mm 2 m/s 736 mmHg 85%
03:00 -2°C° 0 mm 2 m/s 736 mmHg 85%
04:00 -2°C° 0 mm 2 m/s 736 mmHg 86%
05:00 -2°C° 0 mm 2 m/s 736 mmHg 86%
06:00 -2°C° 0 mm 2 m/s 736 mmHg 87%
07:00 -2°C° 0 mm 2 m/s 736 mmHg 87%
08:00 -1°C° 0.1 mm 2 m/s 736 mmHg 86%
09:00 0°C° 0.1 mm 3 m/s 737 mmHg 84%
10:00 0°C° 0.1 mm 3 m/s 737 mmHg 83%
11:00 +1°C° 0.2 mm 3 m/s 737 mmHg 83%
12:00 +1°C° 0.2 mm 3 m/s 737 mmHg 83%
13:00 +1°C° 0.2 mm 3 m/s 738 mmHg 83%
14:00 +1°C° 0.1 mm 3 m/s 738 mmHg 79%
15:00 +1°C° 0.1 mm 3 m/s 737 mmHg 74%
16:00 +1°C° 0.1 mm 3 m/s 737 mmHg 69%
17:00 +1°C° 0 mm 2 m/s 738 mmHg 72%
18:00 -2°C° 0 mm 2 m/s 738 mmHg 75%
19:00 -1°C° 0 mm 1 m/s 739 mmHg 79%
20:00 -1°C° 0 mm 1 m/s 739 mmHg 79%
21:00 -1°C° 0 mm 1 m/s 739 mmHg 80%
22:00 -3°C° 0 mm 0 m/s 739 mmHg 81%
23:00 -3°C° 0 mm 0 m/s 739 mmHg 81%

9 Março, Terça-feira

Tempo Temperatura Precipitação Vento Pressão Humidade
00:00 -3°C° 0 mm 0 m/s 739 mmHg 81%
01:00 -3°C° 0 mm 0 m/s 739 mmHg 81%
02:00 -3°C° 0 mm 0 m/s 739 mmHg 81%
03:00 -3°C° 0 mm 0 m/s 739 mmHg 81%
04:00 -3°C° 0 mm 0 m/s 739 mmHg 80%
05:00 -3°C° 0 mm 0 m/s 739 mmHg 80%
06:00 -3°C° 0 mm 0 m/s 739 mmHg 79%
07:00 -3°C° 0 mm 0 m/s 739 mmHg 79%
08:00 -1°C° 0 mm 1 m/s 740 mmHg 73%
09:00 0°C° 0 mm 1 m/s 740 mmHg 67%
10:00 +1°C° 0 mm 1 m/s 740 mmHg 61%
11:00 +2°C° 0 mm 1 m/s 740 mmHg 58%
12:00 +3°C° 0 mm 1 m/s 740 mmHg 54%
13:00 +3°C° 0 mm 1 m/s 740 mmHg 50%
14:00 +3°C° 0 mm 1 m/s 739 mmHg 51%
15:00 +3°C° 0 mm 1 m/s 739 mmHg 51%
16:00 +3°C° 0 mm 1 m/s 739 mmHg 52%
17:00 +2°C° 0 mm 1 m/s 739 mmHg 58%
18:00 +1°C° 0 mm 1 m/s 739 mmHg 65%
19:00 -1°C° 0 mm 1 m/s 739 mmHg 71%
20:00 -1°C° 0 mm 1 m/s 739 mmHg 71%
21:00 -1°C° 0 mm 1 m/s 739 mmHg 72%
22:00 -1°C° 0 mm 1 m/s 740 mmHg 72%
23:00 -1°C° 0 mm 1 m/s 740 mmHg 71%

10 Março, Quarta-feira

Tempo Temperatura Precipitação Vento Pressão Humidade
00:00 -1°C° 0 mm 1 m/s 739 mmHg 71%
01:00 -1°C° 0 mm 1 m/s 739 mmHg 70%
02:00 -1°C° 0 mm 1 m/s 739 mmHg 70%
03:00 -1°C° 0 mm 1 m/s 739 mmHg 70%
04:00 -1°C° 0 mm 1 m/s 739 mmHg 70%
05:00 0°C° 0 mm 1 m/s 739 mmHg 72%
06:00 0°C° 0 mm 1 m/s 739 mmHg 73%
07:00 0°C° 0 mm 1 m/s 739 mmHg 75%
08:00 +2°C° 0 mm 1 m/s 739 mmHg 72%
09:00 +2°C° 0 mm 2 m/s 739 mmHg 70%
10:00 +4°C° 0 mm 2 m/s 739 mmHg 68%
11:00 +4°C° 0 mm 2 m/s 739 mmHg 67%
12:00 +4°C° 0 mm 3 m/s 739 mmHg 66%
13:00 +5°C° 0 mm 3 m/s 738 mmHg 65%
14:00 +4°C° 0 mm 3 m/s 738 mmHg 67%
15:00 +4°C° 0 mm 3 m/s 737 mmHg 68%
16:00 +4°C° 0 mm 3 m/s 737 mmHg 69%
17:00 +3°C° 0 mm 3 m/s 737 mmHg 74%
18:00 +2°C° 0 mm 3 m/s 736 mmHg 78%
19:00 +1°C° 0 mm 3 m/s 736 mmHg 83%
20:00 +1°C° 0 mm 3 m/s 736 mmHg 81%
21:00 0°C° 0 mm 4 m/s 735 mmHg 80%
22:00 +1°C° 0 mm 4 m/s 735 mmHg 79%
23:00 +1°C° 0 mm 5 m/s 734 mmHg 76%
Mostrar mais

Necessitamos do seu Consentimento

A Meteoprog e os seus Fornecedores de Serviços podem armazenar e aceder a dados pessoais como cookies, identificadores do dispositivo ou outras tecnologias semelhantes existentes no seu dispositivo e processar estes dados para personalizar conteúdos e anúncios, assim como funcionalidades nas redes sociais e análise de tráfego.

  • Armazenar e/ou aceder a informações no seu dispositivo

    Os cookies, identificadores do dispositivo ou outras informações podem ser armazenados ou acedidos no seu dispositivo, para os fins acima indicados.

  • Anúncios e conteúdos personalizados, medição de anúncios e conteúdos, dados sobre o público-alvo e desenvolvimento de produtos

    Os anúncios e os conteúdos podem ser personalizados com base num perfil. Podem ser adicionados dados adicionais para uma maior personalização dos anúncios e dos conteúdos. A eficácia dos anúncios e dos conteúdos pode ser medida. Podem ser obtidas informações sobre o público que visualizou os anúncios e os conteúdos. Estes dados podem ser usados para desenvolver ou melhorar sistemas, softwares ou a experiência do utilizador.

Ao clicar em "Eu concordo”, permitirá o uso de cookies, identificadores do dispositivo e web beacons mencionados ou outras tecnologias semelhantes. As configurações do navegador do seu dispositivo podem ser alteradas.

Para certos fins, podem ser invocados interesses legítimos ao invés de consentimento. Pode ler mais informação sobre este assunto na nossa Política de Privacidade e Cookies.